Location: Newark
(61.5000°N, 23.7667°E)
Time: 10:57:21
(UTC+00:00)

ISS - Pass Details

Date: 26 September 2019
Orbit: 411 x 421 km, 51.6° (Epoch: 20 October)

Event Time Altitude Azimuth Distance (km) Brightness Sun altitude
Rises 17:46:00 0° 231° (SW) 2,343 0.5 -11.7°
Reaches altitude 10° 17:48:45 10° 206° (SSW) 1,482 -0.9 -12.0°
Maximum altitude 17:50:41 15° 171° (S) 1,232 -1.7 -12.2°
Enters shadow 17:51:29 14° 154° (SSE) 1,281 -1.7 -12.3°
